Regional Weather Roundup
Issued by NWS

Home | Current Version | Previous Version | Text Only | Print | Product List | Glossary On
Versions: 1 2 3 4 5 6 7 8 9 10 11 12 13 14 15 16 17 18 19 20 21 22 23 24 25 26 27 28 29 30 31 32 33 34 35 36 37 38 39 40 41 42 43 44 45 46 47 48 49 50
000
ASUS45 KREV 310110
RWRNV
NEVADA REGIONAL WEATHER ROUNDUP
NATIONAL WEATHER SERVICE RENO NV
600 PM PDT THU JUL 30 2015

NOTE: "FAIR" INDICATES FEW OR NO CLOUDS BELOW 12,000 FEET WITH NO
SIGNIFICANT WEATHER AND/OR OBSTRUCTIONS TO VISIBILITY.

NVZ001-003-004-310200-
WESTERN NEVADA

CITY           SKY/WX    TMP DP  RH WIND       PRES   REMARKS
RENO           PTSUNNY   96  23   7 SE10      30.15F
CARSON CITY    FAIR      93  18   6 CALM      30.18F
MINDEN         FAIR      93  27   9 CALM      30.17S
SLIDE MTN        N/A     68  37  32 E1          N/A
PYRAMID LAKE     N/A     91 N/A N/A N7          N/A
FALLON         PTSUNNY   98  19   6 N5        30.10F
LOVELOCK       SUNNY     98  21   6 CALM      30.10F
HAWTHORNE      SUNNY     97  25   7 NW9       30.12F
$$

NVZ002-CAZ072-073-310200-
NORTHERN AND CENTRAL SIERRA

CITY           SKY/WX    TMP DP  RH WIND       PRES   REMARKS
S. LAKE TAHOE  PTSUNNY   86  28  12 NE3       30.32F
TRUCKEE        MOSUNNY   86  28  12 W8        30.29S
SQUAW VLY 8000   N/A     75  37  25 NW6         N/A
SUSANVILLE     SUNNY     93  30  10 W5        30.15F
BLUE CANYON    MOSUNNY   86  39  19 W8        30.27S
MAMMOTH LAKES  CLOUDY    72  36  26 CALM      30.44R
BRIDGEPORT     PTSUNNY   79  26  14 N5        30.34R
$$

NVZ030-031-036-310200-
NORTHERN NEVADA

CITY           SKY/WX    TMP DP  RH WIND       PRES   REMARKS
ELKO           MOSUNNY   93  14   5 N10       30.22F
WINNEMUCCA     NOT AVBL
WENDOVER       SUNNY     91  28  10 E6        30.19F
$$

NVZ035-037-310200-
CENTRAL NEVADA

CITY           SKY/WX    TMP DP  RH WIND       PRES   REMARKS
ELY            MOSUNNY   90  19   7 W7        30.28F
EUREKA           N/A     89  20   8 N12       30.26F
$$

NVZ013-014-310200-
SOUTH CENTRAL NEVADA

CITY           SKY/WX    TMP DP  RH WIND       PRES   REMARKS
TONOPAH        CLOUDY    86  32  14 W10       30.26S
$$

NVZ017-020-022-310200-
SOUTHERN NEVADA

CITY           SKY/WX    TMP DP  RH WIND       PRES   REMARKS
LAS VEGAS      PTSUNNY  104  43  12 E6        29.91F
N. LAS VEGAS   PTSUNNY  104  44  13 S5        29.93F
NELLIS AFB     PTSUNNY  104  45  13 SW8       29.90F
HENDERSON      PTSUNNY  102  48  16 CALM      29.99S
MERCURY        CLOUDY    97  42  15 CALM      30.04F
$$


USA.gov is the U.S. government's official web portal to all federal, state and local government web resources and services.